Regional Weather Roundup
Issued by NWS

Home | Current Version | Previous Version | Graphics & Text | Print | Product List | Glossary On
Versions: 1 2 3 4 5 6 7 8 9 10 11 12 13 14 15 16 17 18 19 20 21 22 23 24 25 26 27 28 29 30 31 32 33 34 35 36 37 38 39 40 41 42 43 44 45 46 47 48 49 50
000
ASUS45 KSLC 171210
RWRUT

UTAH REGIONAL WEATHER ROUNDUP
NATIONAL WEATHER SERVICE SALT LAKE CITY UT
600 AM MDT WED SEP 17 2014

UTZ001>011-023>025-171300-

NORTHERN UTAH

CITY           SKY/WX    TMP DP  RH WIND       PRES   REMARKS
HILL AFB       MOCLDY    65  41  42 E18       29.99R
LOGAN          CLEAR     51  46  83 CALM      29.98S
OGDEN          PTCLDY    64  43  46 S6        29.96S
PROVO AIRPORT  PTCLDY    63  43  48 S5        30.02S
SALT LAKE CITY MOCLDY    70  44  39 SE13      29.94S
VERNAL         CLEAR     53  42  66 W5        30.10S
WENDOVER       CLEAR     64  37  36 NE7       29.94R
HEBER CITY     CLEAR     43  41  93 CALM      30.11S
WEST JORDAN    CLEAR     68  41  37 S10       29.98S

$$

UTZ012>022-026-027-171300-

SOUTHERN UTAH

CITY           SKY/WX    TMP DP  RH WIND       PRES   REMARKS
BRYCE CANYON   MOCLDY    49  43  80 W6        30.25F
CEDAR CITY     PTCLDY    62  50  64 SE6       30.10S
MILFORD        PTCLDY    62  50  64 SW14      30.04S
MOAB/CYNLANDS  CLEAR     64  43  46 CALM      30.02R
PRICE          PTCLDY    60  37  42 N8        30.11S
ST GEORGE      SUNNY     73  54  49 CALM      29.94S
KANAB            N/A     64  46  52 N5        30.11R

$$

REGIONAL REPORTS     COLORADO/ARIZONA

CITY           SKY/WX    TMP DP  RH WIND       PRES   REMARKS
CRAIG, CO      CLEAR     41  36  82 CALM      30.19S
GRAND JUNCTION CLEAR     57  41  55 E3        30.08R
RIFLE          PTCLDY    50  41  71 CALM      30.17R
MONTROSE       PTCLDY    54  42  64 S5        30.17S
CORTEZ         CLEAR     51  48  89 CALM      30.18R
PAGE, AZ       CLOUDY    73  53  49 S6        30.04S
GRAND CANYON   MOCLDY    53  49  86 CALM      30.19R
KINGMAN        MOCLDY    67  60  78 E5        29.96S
FLAGSTAFF      CLOUDY    56  54  93 CALM      30.21S

$$

REGIONAL REPORTS    NEVADA/IDAHO/WYOMING

CITY           SKY/WX    TMP DP  RH WIND       PRES   REMARKS
LAS VEGAS, NV  PTCLDY    81  57  43 W5        29.83S
ELY            CLEAR     55  38  52 VRB3      30.12S
ELKO           PTCLDY    53  32  44 NE6       30.01S
POCATELLO, ID  TSTM      60  46  59 W10G23    30.01R
BURLEY         MOCLDY    54  47  77 SW3       29.92S
EVANSTON, WY   MOCLDY    57  36  45 SE6       30.18S
ROCK SPRINGS   PTCLDY    52  36  54 NE3       30.17S

$$


USA.gov is the U.S. government's official web portal to all federal, state and local government web resources and services.